User: anonymous   Login
Location: Melbourne
(37.8170°S, 144.9670°E)
Time: 00:09:00
(UTC+10:00)
Language:

ERBS - Orbit

View from above orbital plane
View from above orbital plane
View from above satellite
View from above satellite

Ground track
Ground track

The orbit data is extracted from the following two-line orbital elements,

1 15354U 84108B   17263.89610991 +.00002678 +00000-0 +66046-4 0  9990
2 15354 057.0073 086.1585 0005798 305.4708 054.5806 15.44245225812712
Epoch (UTC): 20 September 2017 21:30:23
Eccentricity: 0.0005798
inclination: 57.0073°
perigee height: 429 km
apogee height: 437 km
right ascension of ascending node: 86.1585°
argument of perigee: 305.4708°
revolutions per day: 15.44245225
mean anomaly at epoch: 54.5806°
orbit number at epoch: 81271

The dashed part of the orbit path shows where the satellite is in the earth's shadow,  

DLR